Location: Canazei
(46.4667°N, 11.7667°E)
Time: 04:12:58
(UTC+00:00)

CZ-2D R/B - Pass Details

Date: 21 April 2021
Orbit: 792 x 844 km, 98.7° (Epoch: 10 May)

Event Time Altitude Azimuth Distance (km) Brightness Sun altitude
Rises 02:48:38 0° 359° (N) 3,415 5.9 -14.1°
Reaches altitude 10° 02:52:15 10° 335° (NNW) 2,476 4.7 -13.6°
Maximum altitude 02:54:49 14° 306° (NW) 2,224 4.2 -13.3°
Drops below altitude 10° 02:57:22 10° 278° (W) 2,466 4.2 -12.9°
Enters shadow 02:57:35 10° 276° (W) 2,504 4.2 -12.9°
